User: anonymous   Login
Location: Montr�al
(45.5000°N, 73.5830°W)
Time: 07:00:59
(UTC-04:00)
Language:

Cosmos 2369 - Orbit

View from above orbital plane
View from above orbital plane
View from above satellite
View from above satellite

Ground track
Ground track

The orbit data is extracted from the following two-line orbital elements,

1 26069U 00006A   18145.13437369  .00000237  00000-0  15117-3 0  9994
2 26069  70.9951   2.7227 0009809  70.0951 290.1226 14.13371738944438
Epoch (UTC): 25 May 2018 03:13:29
Eccentricity: 0.0009809
inclination: 70.9951°
perigee height: 841 km
apogee height: 855 km
right ascension of ascending node: 2.7227°
argument of perigee: 70.0951°
revolutions per day: 14.13371738
mean anomaly at epoch: 290.1226°
orbit number at epoch: 94443

The dashed part of the orbit path shows where the satellite is in the earth's shadow,  

DLR